| time (UTC) | temp C | wind direction | speed KPH | gust KPH | rain 1hr cm | rain 24hr cm | rain mn cm | humidity % | barometer mb |
| 20260505063050 | 8 | 47 | 0.0 | 3.2 | 0.00 | 5.05 | 0.00 | 89 | 1010.8 |
| 20260505061541 | 8 | 46 | 0.0 | 1.6 | 0.00 | 5.05 | 0.00 | 88 | 1010.8 |
| 20260505060055 | 8 | 46 | 0.0 | 3.2 | 0.00 | 5.05 | 0.00 | 88 | 1010.8 |
| 20260505054537 | 9 | 42 | 0.0 | 1.6 | 0.00 | 5.05 | 0.00 | 87 | 1010.8 |
| 20260505053038 | 9 | 28 | 0.0 | 3.2 | 0.00 | 5.05 | 0.00 | 87 | 1010.8 |
| 20260505051535 | 9 | 90 | 0.0 | 1.6 | 0.00 | 5.05 | 0.00 | 86 | 1010.8 |
| 20260505041536 | 10 | 93 | 0.0 | 4.8 | 0.00 | 5.05 | 0.00 | 83 | 1011.0 |
| 20260505040027 | 10 | 101 | 0.0 | 3.2 | 0.00 | 5.05 | 0.00 | 81 | 1011.0 |
| 20260505034527 | 10 | 149 | 0.0 | 3.2 | 0.00 | 5.05 | 5.05 | 81 | 1011.0 |
| 20260505033026 | 10 | 130 | 0.0 | 4.8 | 0.00 | 5.05 | 5.05 | 80 | 1010.9 |
| 20260505031526 | 10 | 140 | 1.6 | 3.2 | 0.00 | 5.05 | 5.05 | 80 | 1010.9 |
| 20260505030026 | 11 | 110 | 0.0 | 4.8 | 0.00 | 5.05 | 5.05 | 79 | 1011.1 |
| 20260505024524 | 11 | 187 | 0.0 | 4.8 | 0.00 | 5.05 | 5.05 | 78 | 1011.1 |
| 20260505023024 | 11 | 106 | 0.0 | 3.2 | 0.00 | 5.05 | 5.05 | 77 | 1011.1 |
| 20260505021524 | 11 | 119 | 0.0 | 3.2 | 0.00 | 5.05 | 5.05 | 76 | 1011.1 |
| 20260505020034 | 11 | 264 | 0.0 | 3.2 | 0.00 | 5.05 | 5.05 | 75 | 1011.1 |
| 20260505014532 | 12 | 349 | 0.0 | 3.2 | 0.00 | 5.05 | 5.05 | 73 | 1011.0 |
| 20260505013030 | 12 | 279 | 0.0 | 4.8 | 0.00 | 5.05 | 5.05 | 71 | 1010.9 |
| 20260505011533 | 12 | 190 | 0.0 | 4.8 | 0.00 | 5.05 | 5.05 | 69 | 1010.7 |
| 20260505010021 | 13 | 71 | 1.6 | 8.0 | 0.00 | 5.05 | 5.05 | 67 | 1010.4 |
| 20260505004525 | 13 | 268 | 0.0 | 3.2 | 0.00 | 5.05 | 5.05 | 65 | 1010.1 |
| 20260505003036 | 13 | 294 | 0.0 | 11.3 | 0.00 | 5.05 | 5.05 | 63 | 1009.9 |
| 20260505001522 | 13 | 101 | 0.0 | 6.4 | 0.00 | 5.05 | 5.05 | 61 | 1009.5 |
| 20260505000024 | 14 | 235 | 1.6 | 6.4 | 0.00 | 5.05 | 5.05 | 59 | 1009.2 |
| 20260504234519 | 15 | 96 | 1.6 | 6.4 | 0.00 | 5.05 | 5.05 | 57 | 1009.0 |
| 20260504233018 | 15 | 238 | 1.6 | 8.0 | 0.00 | 5.05 | 5.05 | 57 | 1008.8 |
| 20260504231519 | 15 | 144 | 3.2 | 11.3 | 0.00 | 5.05 | 5.05 | 54 | 1008.6 |
| 20260504230017 | 16 | 150 | 3.2 | 8.0 | 0.00 | 5.05 | 5.05 | 52 | 1008.3 |
| 20260504224518 | 17 | 241 | 1.6 | 12.9 | 0.00 | 5.05 | 5.05 | 51 | 1008.2 |
| 20260504223017 | 17 | 234 | 1.6 | 6.4 | 0.00 | 5.05 | 5.05 | 49 | 1008.0 |
| 20260504221515 | 17 | 206 | 3.2 | 9.7 | 0.00 | 5.05 | 5.05 | 48 | 1007.8 |
| 20260504220015 | 18 | 284 | 1.6 | 11.3 | 0.00 | 5.05 | 5.05 | 47 | 1007.7 |
| 20260504214517 | 18 | 192 | 1.6 | 14.5 | 0.00 | 5.05 | 5.05 | 47 | 1007.8 |
| 20260504213022 | 19 | 259 | 4.8 | 14.5 | 0.00 | 5.05 | 5.05 | 45 | 1007.5 |
| 20260504211528 | 19 | 254 | 3.2 | 17.7 | 0.00 | 5.05 | 5.05 | 44 | 1007.6 |
| 20260504210011 | 19 | 167 | 3.2 | 12.9 | 0.00 | 5.05 | 5.05 | 43 | 1007.4 |
| 20260504204510 | 20 | 213 | 1.6 | 16.1 | 0.00 | 5.05 | 5.05 | 41 | 1007.5 |
| 20260504203010 | 20 | 207 | 3.2 | 16.1 | 0.13 | 5.05 | 5.05 | 38 | 1007.5 |
| 20260504201508 | 20 | 198 | 3.2 | 12.9 | 0.13 | 5.05 | 5.05 | 38 | 1007.4 |
| 20260504200007 | 21 | 334 | 4.8 | 14.5 | 2.82 | 5.05 | 5.05 | 38 | 1007.4 |
| 20260504194506 | 21 | 182 | 1.6 | 11.3 | 5.05 | 5.05 | 5.05 | 34 | 1007.5 |
| 20260504193006 | 21 | 269 | 4.8 | 14.5 | 4.93 | 4.93 | 4.93 | 35 | 1007.5 |
| 20260504191504 | 20 | 271 | 4.8 | 17.7 | 4.93 | 4.93 | 4.93 | 35 | 1007.5 |
| 20260504190002 | 21 | 323 | 4.8 | 12.9 | 2.11 | 2.11 | 2.11 | 33 | 1007.6 |
| 20260504184603 | 21 | 229 | 4.8 | 20.9 | 0.00 | 0.00 | 0.00 | 32 | 1007.8 |
| 20260504183058 | 21 | 190 | 3.2 | 20.9 | 0.00 | 0.00 | 0.00 | 34 | 1007.8 |
| 20260504181603 | 21 | 291 | 8.0 | 17.7 | 0.00 | 0.00 | 0.00 | 34 | 1008.0 |
| 20260504180057 | 20 | 290 | 8.0 | 22.5 | 0.00 | 0.00 | 0.00 | 34 | 1008.1 |
| 20260504174556 | 21 | 63 | 3.2 | 16.1 | 0.00 | 0.00 | 0.00 | 33 | 1008.1 |
| 20260504173056 | 20 | 293 | 4.8 | 17.7 | 0.00 | 0.00 | 0.00 | 34 | 1008.0 |
| 20260504171552 | 20 | 242 | 3.2 | 12.9 | 0.00 | 0.00 | 0.00 | 33 | 1008.1 |
| 20260504081509 | 5 | 315 | 0.0 | 0.0 | 0.00 | 0.00 | 0.00 | 81 | 1010.6 |